Location: Ferchesar
(52.6477°N, 12.4298°E)
Time: 17:39:22
(UTC+01:00)

Explorer 7 - Pass Details

Date: 11 December 2021
Orbit: 483 x 674 km, 50.3° (Epoch: 23 January)

Event Time Altitude Azimuth Distance (km) Brightness Sun altitude
Rises 08:22:47 0° 280° (W) 2,760 9.9 0.4°
Reaches altitude 10° 08:25:18 10° 269° (W) 1,825 9.1 0.7°
Maximum altitude 08:28:51 28° 210° (SSW) 1,016 8.4 1.1°
Drops below altitude 10° 08:32:13 10° 150° (SSE) 1,730 11.1 1.5°
Sets 08:34:34 0° 138° (SE) 2,587 13.3 1.8°
